Time,TemperatureF,DewpointF,PressureIn,WindDirection,WindDirectionDegrees,WindSpeedMPH,WindSpeedGustMPH,Humidity,HourlyPrecipIn,Conditions,Clouds,dailyrainin,SoftwareType,DateUTC
2013-12-26 00:02:00,68.2,64.5,29.76,North,10,1.0,6.0,88,0.00,CLR,,0.00,WeatherDisplay:10.37,2013-12-25 13:02:00,
2013-12-26 00:07:00,68.4,64.7,29.76,NNE,15,1.0,3.0,88,0.00,CLR,,0.00,WeatherDisplay:10.37,2013-12-25 13:07:00,
2013-12-26 00:12:00,68.3,64.6,29.75,North,8,0.0,3.0,88,0.00,CLR,,0.00,WeatherDisplay:10.37,2013-12-25 13:12:00,
2013-12-26 00:17:00,68.2,64.5,29.75,North,8,0.0,5.0,88,0.02,RA,,0.02,WeatherDisplay:10.37,2013-12-25 13:17:00,
2013-12-26 00:22:00,68.2,64.5,29.75,NNE,24,1.0,3.0,88,0.00,RA,,0.02,WeatherDisplay:10.37,2013-12-25 13:22:00,
2013-12-26 00:27:00,68.2,64.8,29.75,NNE,26,1.0,2.0,89,0.00,,,0.02,WeatherDisplay:10.37,2013-12-25 13:27:00,
2013-12-26 00:32:00,68.4,65.0,29.74,NNE,23,0.0,3.0,89,0.00,CLR,,0.02,WeatherDisplay:10.37,2013-12-25 13:32:00,
2013-12-26 00:42:00,68.4,65.0,29.75,NNE,26,1.0,5.0,89,0.00,CLR,,0.02,WeatherDisplay:10.37,2013-12-25 13:42:00,
2013-12-26 00:52:00,68.4,65.0,29.74,NNE,26,0.0,5.0,89,0.00,CLR,,0.02,WeatherDisplay:10.37,2013-12-25 13:52:00,
2013-12-26 00:57:00,68.4,65.0,29.74,NNE,19,0.0,4.0,89,0.00,CLR,,0.02,WeatherDisplay:10.37,2013-12-25 13:57:00,
2013-12-26 01:02:00,68.4,65.0,29.74,North,11,1.0,3.0,89,0.00,,,0.02,WeatherDisplay:10.37,2013-12-25 14:02:00,
2013-12-26 01:07:00,68.4,65.0,29.74,NNE,17,1.0,4.0,89,0.02,RA,,0.04,WeatherDisplay:10.37,2013-12-25 14:07:00,
2013-12-26 01:12:00,68.4,65.0,29.74,NNE,17,1.0,4.0,89,0.00,RA,,0.04,WeatherDisplay:10.37,2013-12-25 14:12:00,
2013-12-26 01:17:00,68.4,65.0,29.73,NNE,13,0.0,5.0,89,0.00,,,0.04,WeatherDisplay:10.37,2013-12-25 14:17:00,
2013-12-26 01:22:00,68.4,65.0,29.73,NNE,14,0.0,2.0,89,0.00,,,0.04,WeatherDisplay:10.37,2013-12-25 14:22:00,
2013-12-26 01:27:00,68.4,65.0,29.73,NNE,17,0.0,2.0,89,0.02,RA,,0.06,WeatherDisplay:10.37,2013-12-25 14:27:00,
2013-12-26 01:32:00,68.4,65.0,29.73,NNE,21,2.0,4.0,89,0.00,RA,,0.06,WeatherDisplay:10.37,2013-12-25 14:32:00,
2013-12-26 01:37:00,68.4,65.0,29.73,NNE,20,3.0,6.0,89,0.00,,,0.06,WeatherDisplay:10.37,2013-12-25 14:37:00,
2013-12-26 01:42:00,68.4,65.0,29.73,NNE,16,0.0,5.0,89,0.00,,,0.06,WeatherDisplay:10.37,2013-12-25 14:42:00,
2013-12-26 01:47:00,68.4,65.0,29.73,NNE,13,2.0,5.0,89,0.00,,,0.06,WeatherDisplay:10.37,2013-12-25 14:47:00,
2013-12-26 01:52:00,68.4,65.0,29.72,NNE,15,0.0,2.0,89,0.02,RA,,0.08,WeatherDisplay:10.37,2013-12-25 14:52:00,
2013-12-26 01:57:00,68.4,65.0,29.72,North,11,0.0,5.0,89,0.00,RA,,0.08,WeatherDisplay:10.37,2013-12-25 14:57:00,
2013-12-26 02:02:00,68.4,65.0,29.72,North,3,0.0,3.0,89,0.00,,,0.08,WeatherDisplay:10.37,2013-12-25 15:02:00,
2013-12-26 02:07:00,68.4,65.0,29.72,North,11,0.0,3.0,89,0.00,,,0.08,WeatherDisplay:10.37,2013-12-25 15:07:00,
2013-12-26 02:12:00,68.4,65.0,29.71,NNE,14,0.0,3.0,89,0.00,,,0.08,WeatherDisplay:10.37,2013-12-25 15:12:00,
2013-12-26 02:17:00,68.2,64.8,29.71,North,5,1.0,3.0,89,0.00,,,0.08,WeatherDisplay:10.37,2013-12-25 15:17:00,
2013-12-26 02:22:00,68.4,65.0,29.71,North,359,0.0,0.0,89,0.00,,,0.08,WeatherDisplay:10.37,2013-12-25 15:22:00,
2013-12-26 02:27:00,68.4,65.0,29.71,North,358,0.0,2.0,89,0.00,,,0.08,WeatherDisplay:10.37,2013-12-25 15:27:00,
2013-12-26 02:32:00,68.3,65.0,29.71,NNE,12,0.0,2.0,89,0.00,,,0.08,WeatherDisplay:10.37,2013-12-25 15:32:00,
2013-12-26 02:37:00,68.4,65.0,29.71,North,4,0.0,2.0,89,0.00,,,0.08,WeatherDisplay:10.37,2013-12-25 15:37:00,
2013-12-26 02:42:00,68.3,64.9,29.71,North,358,0.0,2.0,89,0.00,,,0.08,WeatherDisplay:10.37,2013-12-25 15:42:00,
2013-12-26 02:47:00,68.2,64.8,29.71,North,357,0.0,3.0,89,0.00,,,0.08,WeatherDisplay:10.37,2013-12-25 15:47:00,
2013-12-26 02:52:00,68.2,64.8,29.70,North,350,0.0,2.0,89,0.00,CLR,,0.08,WeatherDisplay:10.37,2013-12-25 15:52:00,
2013-12-26 02:57:00,68.2,64.8,29.70,North,357,0.0,1.0,89,0.00,CLR,,0.08,WeatherDisplay:10.37,2013-12-25 15:57:00,
2013-12-26 03:02:00,68.2,64.8,29.70,North,2,0.0,2.0,89,0.00,CLR,,0.08,WeatherDisplay:10.37,2013-12-25 16:02:00,
2013-12-26 03:07:00,68.2,64.8,29.70,North,359,0.0,0.0,89,0.00,CLR,,0.08,WeatherDisplay:10.37,2013-12-25 16:07:00,
2013-12-26 03:12:00,68.2,64.8,29.69,North,5,0.0,2.0,89,0.00,CLR,,0.08,WeatherDisplay:10.37,2013-12-25 16:12:00,
2013-12-26 03:17:00,68.2,64.8,29.69,North,358,0.0,2.0,89,0.00,CLR,,0.08,WeatherDisplay:10.37,2013-12-25 16:17:00,
2013-12-26 03:22:00,68.2,64.8,29.69,North,352,0.0,0.0,89,0.00,CLR,,0.08,WeatherDisplay:10.37,2013-12-25 16:22:00,
2013-12-26 03:27:00,68.2,64.8,29.69,North,9,0.0,0.0,89,0.00,CLR,,0.08,WeatherDisplay:10.37,2013-12-25 16:27:00,
2013-12-26 03:32:00,68.2,64.9,29.69,NNE,27,0.0,0.0,89,0.00,CLR,,0.08,WeatherDisplay:10.37,2013-12-25 16:32:00,
2013-12-26 03:37:00,68.2,64.8,29.69,NNE,27,0.0,1.0,89,0.00,CLR,,0.08,WeatherDisplay:10.37,2013-12-25 16:37:00,
2013-12-26 03:42:00,68.2,64.8,29.68,NNE,19,0.0,0.0,89,0.00,CLR,,0.08,WeatherDisplay:10.37,2013-12-25 16:42:00,
2013-12-26 03:47:00,68.2,64.8,29.68,NNE,20,0.0,2.0,89,0.00,CLR,,0.08,WeatherDisplay:10.37,2013-12-25 16:47:00,
2013-12-26 03:52:00,68.3,64.9,29.68,North,7,0.0,0.0,89,0.00,CLR,,0.08,WeatherDisplay:10.37,2013-12-25 16:52:00,
2013-12-26 03:57:00,68.3,64.9,29.68,North,1,0.0,2.0,89,0.00,CLR,,0.08,WeatherDisplay:10.37,2013-12-25 16:57:00,
2013-12-26 04:02:00,68.2,64.8,29.68,North,5,1.0,3.0,89,0.00,CLR,,0.08,WeatherDisplay:10.37,2013-12-25 17:02:00,
2013-12-26 04:07:00,68.3,64.9,29.69,NNE,15,0.0,2.0,89,0.00,CLR,,0.08,WeatherDisplay:10.37,2013-12-25 17:07:00,
2013-12-26 04:12:00,68.4,65.0,29.68,NNE,25,0.0,2.0,89,0.00,CLR,,0.08,WeatherDisplay:10.37,2013-12-25 17:12:00,
2013-12-26 04:17:00,68.4,65.0,29.68,NNE,15,0.0,3.0,89,0.00,CLR,,0.08,WeatherDisplay:10.37,2013-12-25 17:17:00,
2013-12-26 04:22:00,68.4,65.0,29.68,North,359,0.0,3.0,89,0.00,CLR,,0.08,WeatherDisplay:10.37,2013-12-25 17:22:00,
2013-12-26 04:27:00,68.4,65.0,29.68,North,351,0.0,2.0,89,0.00,CLR,,0.08,WeatherDisplay:10.37,2013-12-25 17:27:00,
2013-12-26 04:32:00,68.4,65.0,29.68,North,356,0.0,2.0,89,0.00,CLR,,0.08,WeatherDisplay:10.37,2013-12-25 17:32:00,
2013-12-26 04:37:00,68.4,65.0,29.68,North,359,0.0,2.0,89,0.00,CLR,,0.08,WeatherDisplay:10.37,2013-12-25 17:37:00,
2013-12-26 04:42:00,68.4,65.0,29.68,NNW,329,1.0,4.0,89,0.00,CLR,,0.08,WeatherDisplay:10.37,2013-12-25 17:42:00,
2013-12-26 04:47:00,68.4,65.0,29.68,NW,317,0.0,2.0,89,0.00,CLR,,0.08,WeatherDisplay:10.37,2013-12-25 17:47:00,
2013-12-26 04:52:00,68.4,65.0,29.68,NW,322,0.0,0.0,89,0.00,CLR,,0.08,WeatherDisplay:10.37,2013-12-25 17:52:00,
2013-12-26 04:57:00,68.3,65.0,29.69,NW,319,0.0,4.0,89,0.00,CLR,,0.08,WeatherDisplay:10.37,2013-12-25 17:57:00,
2013-12-26 05:02:00,68.4,65.0,29.69,NNW,343,0.0,3.0,89,0.00,CLR,,0.08,WeatherDisplay:10.37,2013-12-25 18:02:00,
2013-12-26 05:07:00,68.2,64.8,29.69,North,354,1.0,3.0,89,0.00,CLR,,0.08,WeatherDisplay:10.37,2013-12-25 18:07:00,
2013-12-26 05:12:00,68.2,64.8,29.69,North,358,0.0,2.0,89,0.00,CLR,,0.08,WeatherDisplay:10.37,2013-12-25 18:12:00,
2013-12-26 05:17:00,68.2,64.8,29.69,NNW,342,0.0,3.0,89,0.00,CLR,,0.08,WeatherDisplay:10.37,2013-12-25 18:17:00,
2013-12-26 05:22:00,68.2,64.8,29.69,WNW,282,0.0,3.0,89,0.00,CLR,,0.08,WeatherDisplay:10.37,2013-12-25 18:22:00,
2013-12-26 05:27:00,68.4,65.0,29.70,SW,236,0.0,2.0,89,0.00,CLR,,0.08,WeatherDisplay:10.37,2013-12-25 18:27:00,
2013-12-26 05:32:00,68.4,65.0,29.70,SW,216,1.0,4.0,89,0.00,CLR,,0.08,WeatherDisplay:10.37,2013-12-25 18:32:00,
2013-12-26 05:37:00,68.4,65.0,29.70,SW,216,0.0,4.0,89,0.00,CLR,,0.08,WeatherDisplay:10.37,2013-12-25 18:37:00,
2013-12-26 05:42:00,68.4,65.0,29.70,WSW,248,0.0,0.0,89,0.00,CLR,,0.08,WeatherDisplay:10.37,2013-12-25 18:42:00,
2013-12-26 05:47:00,68.3,64.9,29.70,WSW,258,0.0,0.0,89,0.00,CLR,,0.08,WeatherDisplay:10.37,2013-12-25 18:47:00,
2013-12-26 05:52:00,68.3,64.9,29.70,WSW,250,0.0,0.0,89,0.00,CLR,,0.08,WeatherDisplay:10.37,2013-12-25 18:52:00,
2013-12-26 05:57:00,68.4,65.0,29.70,West,274,0.0,0.0,89,0.00,CLR,,0.08,WeatherDisplay:10.37,2013-12-25 18:57:00,
2013-12-26 06:02:00,68.2,64.9,29.70,West,269,0.0,0.0,89,0.00,CLR,,0.08,WeatherDisplay:10.37,2013-12-25 19:02:00,
2013-12-26 06:07:00,68.2,64.8,29.70,WSW,255,0.0,0.0,89,0.00,CLR,,0.08,WeatherDisplay:10.37,2013-12-25 19:07:00,
2013-12-26 06:12:00,68.3,64.9,29.70,West,263,0.0,0.0,89,0.00,CLR,,0.08,WeatherDisplay:10.37,2013-12-25 19:12:00,
2013-12-26 06:17:00,68.2,64.8,29.70,West,263,0.0,0.0,89,0.00,CLR,,0.08,WeatherDisplay:10.37,2013-12-25 19:17:00,
2013-12-26 06:22:00,68.3,64.9,29.70,WNW,287,0.0,0.0,89,0.00,CLR,,0.08,WeatherDisplay:10.37,2013-12-25 19:22:00,
2013-12-26 06:27:00,68.2,64.8,29.71,WNW,286,0.0,0.0,89,0.00,CLR,,0.08,WeatherDisplay:10.37,2013-12-25 19:27:00,
2013-12-26 06:32:00,68.2,64.8,29.71,WNW,285,0.0,0.0,89,0.00,CLR,,0.08,WeatherDisplay:10.37,2013-12-25 19:32:00,
2013-12-26 06:37:00,68.2,64.8,29.71,WNW,288,0.0,0.0,89,0.00,CLR,,0.08,WeatherDisplay:10.37,2013-12-25 19:37:00,
2013-12-26 06:42:00,68.3,64.9,29.71,West,259,0.0,0.0,89,0.00,CLR,,0.08,WeatherDisplay:10.37,2013-12-25 19:42:00,
2013-12-26 06:47:00,68.4,65.0,29.71,WSW,241,1.0,5.0,89,0.00,CLR,,0.08,WeatherDisplay:10.37,2013-12-25 19:47:00,
2013-12-26 06:52:00,68.4,65.0,29.72,SW,228,0.0,5.0,89,0.00,CLR,,0.08,WeatherDisplay:10.37,2013-12-25 19:52:00,
2013-12-26 06:57:00,68.4,65.0,29.73,SSW,204,0.0,0.0,89,0.00,CLR,,0.08,WeatherDisplay:10.37,2013-12-25 19:57:00,
2013-12-26 07:02:00,68.4,65.0,29.73,SW,219,1.0,4.0,89,0.00,CLR,,0.08,WeatherDisplay:10.37,2013-12-25 20:02:00,
2013-12-26 07:07:00,68.5,65.2,29.73,WSW,240,0.0,6.0,89,0.00,CLR,,0.08,WeatherDisplay:10.37,2013-12-25 20:07:00,
2013-12-26 07:12:00,68.5,65.2,29.73,SW,231,0.0,4.0,89,0.00,CLR,,0.08,WeatherDisplay:10.37,2013-12-25 20:12:00,
2013-12-26 07:17:00,68.6,64.9,29.73,WSW,238,0.0,7.0,88,0.00,CLR,,0.08,WeatherDisplay:10.37,2013-12-25 20:17:00,
2013-12-26 07:22:00,68.6,64.9,29.74,SW,233,2.0,6.0,88,0.00,CLR,,0.08,WeatherDisplay:10.37,2013-12-25 20:22:00,
2013-12-26 07:27:00,68.7,65.0,29.74,SW,221,1.0,6.0,88,0.00,CLR,,0.08,WeatherDisplay:10.37,2013-12-25 20:27:00,
2013-12-26 07:32:00,68.7,65.0,29.74,SW,220,0.0,6.0,88,0.00,CLR,,0.08,WeatherDisplay:10.37,2013-12-25 20:32:00,
2013-12-26 07:37:00,68.7,65.0,29.75,SW,224,3.0,7.0,88,0.00,CLR,,0.08,WeatherDisplay:10.37,2013-12-25 20:37:00,
2013-12-26 07:42:00,68.7,64.7,29.75,WSW,242,1.0,3.0,87,0.00,CLR,,0.08,WeatherDisplay:10.37,2013-12-25 20:42:00,
2013-12-26 07:47:00,68.7,64.7,29.74,WSW,255,0.0,4.0,87,0.00,CLR,,0.08,WeatherDisplay:10.37,2013-12-25 20:47:00,
2013-12-26 07:52:00,68.8,64.7,29.74,SW,224,0.0,4.0,87,0.00,CLR,,0.08,WeatherDisplay:10.37,2013-12-25 20:52:00,
2013-12-26 07:57:00,68.9,64.9,29.74,SSW,209,3.0,7.0,87,0.00,CLR,,0.08,WeatherDisplay:10.37,2013-12-25 20:57:00,
2013-12-26 08:02:00,69.0,64.9,29.74,SSW,207,1.0,5.0,87,0.00,CLR,,0.08,WeatherDisplay:10.37,2013-12-25 21:02:00,
2013-12-26 08:07:00,69.1,64.7,29.75,SW,222,1.0,12.0,86,0.00,CLR,,0.08,WeatherDisplay:10.37,2013-12-25 21:07:00,
2013-12-26 08:12:00,69.1,64.7,29.75,SW,221,1.0,14.0,86,0.00,CLR,,0.08,WeatherDisplay:10.37,2013-12-25 21:12:00,
2013-12-26 08:17:00,69.1,64.7,29.74,SW,219,2.0,6.0,86,0.00,CLR,,0.08,WeatherDisplay:10.37,2013-12-25 21:17:00,
2013-12-26 08:22:00,69.5,65.1,29.75,SW,223,2.0,5.0,86,0.00,CLR,,0.08,WeatherDisplay:10.37,2013-12-25 21:22:00,
2013-12-26 08:27:00,69.6,65.3,29.75,SW,233,1.0,4.0,86,0.00,CLR,,0.08,WeatherDisplay:10.37,2013-12-25 21:27:00,
2013-12-26 08:32:00,70.0,65.6,29.75,SW,233,0.0,5.0,86,0.00,CLR,,0.08,WeatherDisplay:10.37,2013-12-25 21:32:00,
2013-12-26 08:37:00,70.3,66.0,29.74,SW,235,1.0,6.0,86,0.00,CLR,,0.08,WeatherDisplay:10.37,2013-12-25 21:37:00,
2013-12-26 08:42:00,70.5,66.1,29.74,WSW,254,2.0,6.0,86,0.00,CLR,,0.08,WeatherDisplay:10.37,2013-12-25 21:42:00,
2013-12-26 08:47:00,70.7,66.0,29.74,WSW,252,1.0,7.0,85,0.00,CLR,,0.08,WeatherDisplay:10.37,2013-12-25 21:47:00,
2013-12-26 08:52:00,70.9,65.8,29.74,WSW,257,2.0,5.0,84,0.00,CLR,,0.08,WeatherDisplay:10.37,2013-12-25 21:52:00,
2013-12-26 08:57:00,71.2,66.2,29.73,WSW,251,3.0,8.0,84,0.00,CLR,,0.08,WeatherDisplay:10.37,2013-12-25 21:57:00,
2013-12-26 09:02:00,71.8,66.7,29.73,WSW,239,2.0,13.0,84,0.00,CLR,,0.08,WeatherDisplay:10.37,2013-12-25 22:02:00,
2013-12-26 09:07:00,72.3,66.8,29.73,WSW,243,2.0,7.0,83,0.00,CLR,,0.08,WeatherDisplay:10.37,2013-12-25 22:07:00,
2013-12-26 09:12:00,73.0,67.2,29.73,WSW,248,1.0,7.0,82,0.00,CLR,,0.08,WeatherDisplay:10.37,2013-12-25 22:12:00,
2013-12-26 09:17:00,73.6,67.0,29.73,SW,228,2.0,7.0,80,0.00,CLR,,0.08,WeatherDisplay:10.37,2013-12-25 22:17:00,
2013-12-26 09:22:00,73.9,67.4,29.74,SSW,213,3.0,11.0,80,0.00,CLR,,0.08,WeatherDisplay:10.37,2013-12-25 22:22:00,
2013-12-26 09:27:00,74.2,67.3,29.73,SW,225,0.0,6.0,79,0.00,CLR,,0.08,WeatherDisplay:10.37,2013-12-25 22:27:00,
2013-12-26 09:32:00,74.5,67.2,29.73,SW,236,0.0,7.0,78,0.00,CLR,,0.08,WeatherDisplay:10.37,2013-12-25 22:32:00,
2013-12-26 09:37:00,74.7,67.3,29.73,SSW,212,6.0,9.0,78,0.00,CLR,,0.08,WeatherDisplay:10.37,2013-12-25 22:37:00,
2013-12-26 09:42:00,74.8,67.1,29.73,SSW,209,6.0,11.0,77,0.00,CLR,,0.08,WeatherDisplay:10.37,2013-12-25 22:42:00,
2013-12-26 09:47:00,75.0,66.9,29.72,SSW,199,3.0,6.0,76,0.00,CLR,,0.08,WeatherDisplay:10.37,2013-12-25 22:47:00,
2013-12-26 09:52:00,75.0,67.0,29.73,SSW,198,3.0,6.0,76,0.00,CLR,,0.08,WeatherDisplay:10.37,2013-12-25 22:52:00,
2013-12-26 09:57:00,75.6,67.1,29.73,SW,232,3.0,5.0,75,0.00,CLR,,0.08,WeatherDisplay:10.37,2013-12-25 22:57:00,
2013-12-26 10:02:00,75.9,67.4,29.73,WSW,253,2.0,7.0,75,0.00,CLR,,0.08,WeatherDisplay:10.37,2013-12-25 23:02:00,
2013-12-26 10:07:00,76.5,67.9,29.73,West,263,2.0,5.0,75,0.00,CLR,,0.08,WeatherDisplay:10.37,2013-12-25 23:07:00,
2013-12-26 10:12:00,77.4,68.1,29.73,West,279,5.0,15.0,73,0.00,CLR,,0.08,WeatherDisplay:10.37,2013-12-25 23:12:00,
2013-12-26 10:17:00,78.1,67.9,29.73,WSW,253,5.0,8.0,71,0.00,CLR,,0.08,WeatherDisplay:10.37,2013-12-25 23:17:00,
2013-12-26 10:22:00,78.4,68.3,29.73,SW,232,6.0,9.0,71,0.00,CLR,,0.08,WeatherDisplay:10.37,2013-12-25 23:22:00,
2013-12-26 10:27:00,78.4,67.4,29.73,SW,232,5.0,10.0,69,0.00,CLR,,0.08,WeatherDisplay:10.37,2013-12-25 23:27:00,
2013-12-26 10:32:00,77.9,66.9,29.73,SW,232,6.0,10.0,69,0.00,CLR,,0.08,WeatherDisplay:10.37,2013-12-25 23:32:00,
2013-12-26 10:37:00,77.5,66.9,29.73,SW,217,2.0,9.0,70,0.00,CLR,,0.08,WeatherDisplay:10.37,2013-12-25 23:37:00,
2013-12-26 10:42:00,77.4,66.8,29.73,SW,235,2.0,6.0,70,0.00,CLR,,0.08,WeatherDisplay:10.37,2013-12-25 23:42:00,
2013-12-26 10:47:00,77.6,67.0,29.73,SW,229,5.0,10.0,70,0.00,CLR,,0.08,WeatherDisplay:10.37,2013-12-25 23:47:00,
2013-12-26 10:52:00,78.1,67.5,29.73,SSW,200,5.0,11.0,70,0.00,CLR,,0.08,WeatherDisplay:10.37,2013-12-25 23:52:00,
2013-12-26 10:57:00,77.7,67.2,29.73,SSW,198,5.0,10.0,70,0.00,CLR,,0.08,WeatherDisplay:10.37,2013-12-25 23:57:00,
2013-12-26 11:02:00,77.4,66.8,29.73,SSW,198,6.0,9.0,70,0.00,CLR,,0.08,WeatherDisplay:10.37,2013-12-26 00:02:00,
2013-12-26 11:07:00,77.0,66.5,29.73,SSW,207,1.0,8.0,70,0.00,CLR,,0.08,WeatherDisplay:10.37,2013-12-26 00:07:00,
2013-12-26 11:12:00,77.2,67.0,29.73,SSW,212,2.0,6.0,71,0.00,CLR,,0.08,WeatherDisplay:10.37,2013-12-26 00:12:00,
2013-12-26 11:17:00,77.7,67.1,29.72,SW,226,3.0,5.0,70,0.00,CLR,,0.08,WeatherDisplay:10.37,2013-12-26 00:17:00,
2013-12-26 11:22:00,78.6,68.0,29.73,WSW,239,0.0,4.0,70,0.00,CLR,,0.08,WeatherDisplay:10.37,2013-12-26 00:22:00,
2013-12-26 11:27:00,78.6,67.6,29.72,WSW,240,1.0,5.0,69,0.00,CLR,,0.08,WeatherDisplay:10.37,2013-12-26 00:27:00,
2013-12-26 11:32:00,78.5,67.5,29.72,SSW,202,2.0,6.0,69,0.00,CLR,,0.08,WeatherDisplay:10.37,2013-12-26 00:32:00,
2013-12-26 11:37:00,78.2,66.7,29.72,South,191,1.0,5.0,68,0.00,CLR,,0.08,WeatherDisplay:10.37,2013-12-26 00:37:00,
2013-12-26 11:42:00,77.6,66.7,29.72,SSW,194,2.0,8.0,69,0.00,CLR,,0.08,WeatherDisplay:10.37,2013-12-26 00:42:00,
2013-12-26 11:47:00,77.5,66.6,29.72,South,176,0.0,4.0,69,0.00,CLR,,0.08,WeatherDisplay:10.37,2013-12-26 00:47:00,
2013-12-26 11:52:00,77.5,67.0,29.72,SW,236,1.0,5.0,70,0.00,CLR,,0.08,WeatherDisplay:10.37,2013-12-26 00:52:00,
2013-12-26 11:57:00,78.1,67.5,29.72,WSW,238,3.0,7.0,70,0.00,CLR,,0.08,WeatherDisplay:10.37,2013-12-26 00:57:00,
2013-12-26 12:02:00,79.1,68.0,29.72,WSW,244,7.0,15.0,69,0.00,CLR,,0.08,WeatherDisplay:10.37,2013-12-26 01:02:00,
2013-12-26 12:07:00,80.1,68.1,29.72,WSW,242,2.0,13.0,67,0.00,CLR,,0.08,WeatherDisplay:10.37,2013-12-26 01:07:00,
2013-12-26 12:12:00,80.8,68.8,29.72,SW,220,2.0,13.0,67,0.00,CLR,,0.08,WeatherDisplay:10.37,2013-12-26 01:12:00,
2013-12-26 12:17:00,81.1,68.7,29.71,South,191,3.0,9.0,66,0.00,CLR,,0.08,WeatherDisplay:10.37,2013-12-26 01:17:00,
2013-12-26 12:22:00,81.3,68.4,29.71,SW,214,2.0,6.0,65,0.00,CLR,,0.08,WeatherDisplay:10.37,2013-12-26 01:22:00,
2013-12-26 12:27:00,81.8,68.4,29.71,SW,229,1.0,9.0,64,0.00,CLR,,0.08,WeatherDisplay:10.37,2013-12-26 01:27:00,
2013-12-26 12:32:00,82.2,69.3,29.71,SSW,195,2.0,6.0,65,0.00,CLR,,0.08,WeatherDisplay:10.37,2013-12-26 01:32:00,
2013-12-26 12:37:00,82.2,68.4,29.71,SSW,193,3.0,8.0,63,0.00,CLR,,0.08,WeatherDisplay:10.37,2013-12-26 01:37:00,
2013-12-26 12:42:00,82.1,68.2,29.71,SSW,210,3.0,8.0,63,0.00,CLR,,0.08,WeatherDisplay:10.37,2013-12-26 01:42:00,
2013-12-26 12:47:00,82.0,67.7,29.70,South,190,2.0,8.0,62,0.00,CLR,,0.08,WeatherDisplay:10.37,2013-12-26 01:47:00,
2013-12-26 12:52:00,81.7,67.9,29.71,SSW,197,3.0,12.0,63,0.00,CLR,,0.08,WeatherDisplay:10.37,2013-12-26 01:52:00,
2013-12-26 12:57:00,81.6,67.8,29.70,SSW,204,2.0,7.0,63,0.00,CLR,,0.08,WeatherDisplay:10.37,2013-12-26 01:57:00,
2013-12-26 13:02:00,81.8,68.4,29.71,SSW,204,2.0,8.0,64,0.00,CLR,,0.08,WeatherDisplay:10.37,2013-12-26 02:02:00,
2013-12-26 13:07:00,82.2,68.4,29.70,SSW,203,3.0,11.0,63,0.00,CLR,,0.08,WeatherDisplay:10.37,2013-12-26 02:07:00,
2013-12-26 13:12:00,82.0,68.2,29.71,SSW,205,3.0,11.0,63,0.00,CLR,,0.08,WeatherDisplay:10.37,2013-12-26 02:12:00,
2013-12-26 13:17:00,82.0,68.2,29.70,SSW,208,3.0,12.0,63,0.00,CLR,,0.08,WeatherDisplay:10.37,2013-12-26 02:17:00,
2013-12-26 13:22:00,82.6,68.7,29.70,SSW,213,2.0,10.0,63,0.00,CLR,,0.08,WeatherDisplay:10.37,2013-12-26 02:22:00,
2013-12-26 13:27:00,83.0,68.6,29.70,SW,221,5.0,11.0,62,0.00,CLR,,0.08,WeatherDisplay:10.37,2013-12-26 02:27:00,
2013-12-26 13:32:00,83.7,69.3,29.70,SSW,210,8.0,12.0,62,0.00,CLR,,0.08,WeatherDisplay:10.37,2013-12-26 02:32:00,
2013-12-26 13:37:00,84.1,69.2,29.70,SSW,209,9.0,15.0,61,0.00,CLR,,0.08,WeatherDisplay:10.37,2013-12-26 02:37:00,
2013-12-26 13:42:00,84.4,69.0,29.70,SSW,209,5.0,15.0,60,0.00,CLR,,0.08,WeatherDisplay:10.37,2013-12-26 02:42:00,
2013-12-26 13:47:00,84.4,68.5,29.70,SSW,208,3.0,8.0,59,0.00,CLR,,0.08,WeatherDisplay:10.37,2013-12-26 02:47:00,
2013-12-26 13:52:00,84.6,69.1,29.69,SSW,210,2.0,7.0,60,0.00,CLR,,0.08,WeatherDisplay:10.37,2013-12-26 02:52:00,
2013-12-26 13:57:00,84.7,69.3,29.69,SSW,213,5.0,7.0,60,0.00,CLR,,0.08,WeatherDisplay:10.37,2013-12-26 02:57:00,
2013-12-26 14:02:00,84.7,68.8,29.69,SSW,202,2.0,8.0,59,0.00,CLR,,0.08,WeatherDisplay:10.37,2013-12-26 03:02:00,
2013-12-26 14:07:00,84.7,68.8,29.69,SW,215,6.0,11.0,59,0.00,CLR,,0.08,WeatherDisplay:10.37,2013-12-26 03:07:00,
2013-12-26 14:12:00,84.7,68.3,29.69,WSW,245,3.0,11.0,58,0.00,CLR,,0.08,WeatherDisplay:10.37,2013-12-26 03:12:00,
2013-12-26 14:17:00,84.7,68.3,29.69,SSW,203,6.0,11.0,58,0.00,CLR,,0.08,WeatherDisplay:10.37,2013-12-26 03:17:00,
2013-12-26 14:22:00,84.7,68.3,29.69,SSW,193,5.0,13.0,58,0.00,CLR,,0.08,WeatherDisplay:10.37,2013-12-26 03:22:00,
2013-12-26 14:27:00,84.6,68.2,29.69,SSW,209,5.0,9.0,58,0.00,CLR,,0.08,WeatherDisplay:10.37,2013-12-26 03:27:00,
2013-12-26 14:32:00,84.6,68.2,29.69,SSW,201,6.0,9.0,58,0.00,CLR,,0.08,WeatherDisplay:10.37,2013-12-26 03:32:00,
2013-12-26 14:37:00,84.6,68.2,29.70,SSW,198,5.0,16.0,58,0.00,CLR,,0.08,WeatherDisplay:10.37,2013-12-26 03:37:00,
2013-12-26 14:42:00,84.7,68.3,29.69,SSW,209,8.0,12.0,58,0.00,CLR,,0.08,WeatherDisplay:10.37,2013-12-26 03:42:00,
2013-12-26 14:47:00,84.5,67.6,29.69,SSW,204,6.0,14.0,57,0.00,CLR,,0.08,WeatherDisplay:10.37,2013-12-26 03:47:00,
2013-12-26 14:52:00,84.4,67.5,29.69,SSW,207,3.0,14.0,57,0.00,CLR,,0.08,WeatherDisplay:10.37,2013-12-26 03:52:00,
2013-12-26 14:57:00,84.4,67.5,29.69,SSW,208,5.0,14.0,57,0.00,CLR,,0.08,WeatherDisplay:10.37,2013-12-26 03:57:00,
2013-12-26 15:02:00,84.4,67.5,29.69,SSW,201,5.0,15.0,57,0.00,CLR,,0.08,WeatherDisplay:10.37,2013-12-26 04:02:00,
2013-12-26 15:07:00,84.0,66.6,29.69,SSW,213,7.0,16.0,56,0.00,CLR,,0.08,WeatherDisplay:10.37,2013-12-26 04:07:00,
2013-12-26 15:12:00,84.0,66.6,29.68,SW,219,6.0,19.0,56,0.00,CLR,,0.08,WeatherDisplay:10.37,2013-12-26 04:12:00,
2013-12-26 15:17:00,84.0,66.6,29.68,SSW,208,5.0,18.0,56,0.00,CLR,,0.08,WeatherDisplay:10.37,2013-12-26 04:17:00,
2013-12-26 15:22:00,84.0,66.6,29.68,SSW,209,9.0,15.0,56,0.00,CLR,,0.08,WeatherDisplay:10.37,2013-12-26 04:22:00,
2013-12-26 15:27:00,84.0,66.7,29.68,SSW,213,3.0,15.0,56,0.00,CLR,,0.08,WeatherDisplay:10.37,2013-12-26 04:27:00,
2013-12-26 15:32:00,84.0,66.6,29.68,SSW,195,3.0,12.0,56,0.00,CLR,,0.08,WeatherDisplay:10.37,2013-12-26 04:32:00,
2013-12-26 15:37:00,83.6,66.2,29.67,SSW,206,2.0,7.0,56,0.00,CLR,,0.08,WeatherDisplay:10.37,2013-12-26 04:37:00,
2013-12-26 15:42:00,83.5,66.6,29.67,SSW,205,5.0,8.0,57,0.00,CLR,,0.08,WeatherDisplay:10.37,2013-12-26 04:42:00,
2013-12-26 15:47:00,83.4,66.0,29.67,South,178,5.0,6.0,56,0.00,CLR,,0.08,WeatherDisplay:10.37,2013-12-26 04:47:00,
2013-12-26 15:52:00,83.3,66.0,29.67,SSW,211,3.0,8.0,56,0.00,CLR,,0.08,WeatherDisplay:10.37,2013-12-26 04:52:00,
2013-12-26 15:57:00,83.1,65.8,29.67,SW,221,5.0,15.0,56,0.00,CLR,,0.08,WeatherDisplay:10.37,2013-12-26 04:57:00,
2013-12-26 16:02:00,82.8,66.0,29.67,SSW,210,6.0,15.0,57,0.00,CLR,,0.08,WeatherDisplay:10.37,2013-12-26 05:02:00,
2013-12-26 16:07:00,82.6,65.3,29.67,SW,224,5.0,10.0,56,0.00,CLR,,0.08,WeatherDisplay:10.37,2013-12-26 05:07:00,
2013-12-26 16:12:00,82.7,65.9,29.67,SW,226,3.0,9.0,57,0.00,CLR,,0.08,WeatherDisplay:10.37,2013-12-26 05:12:00,
2013-12-26 16:17:00,82.7,65.9,29.67,SW,228,5.0,12.0,57,0.00,CLR,,0.08,WeatherDisplay:10.37,2013-12-26 05:17:00,
2013-12-26 16:22:00,82.6,65.8,29.66,SW,218,5.0,13.0,57,0.00,CLR,,0.08,WeatherDisplay:10.37,2013-12-26 05:22:00,
2013-12-26 16:27:00,82.3,65.5,29.66,SSW,212,3.0,8.0,57,0.00,CLR,,0.08,WeatherDisplay:10.37,2013-12-26 05:27:00,
2013-12-26 16:32:00,82.0,64.8,29.66,SW,222,2.0,12.0,56,0.00,CLR,,0.08,WeatherDisplay:10.37,2013-12-26 05:32:00,
2013-12-26 16:37:00,81.7,64.5,29.66,SW,225,7.0,12.0,56,0.00,CLR,,0.08,WeatherDisplay:10.37,2013-12-26 05:37:00,
2013-12-26 16:42:00,81.7,65.0,29.66,South,191,3.0,9.0,57,0.00,CLR,,0.08,WeatherDisplay:10.37,2013-12-26 05:42:00,
2013-12-26 16:47:00,81.6,64.9,29.66,South,189,3.0,9.0,57,0.00,CLR,,0.08,WeatherDisplay:10.37,2013-12-26 05:47:00,
2013-12-26 16:52:00,81.6,65.4,29.66,SSW,199,3.0,9.0,58,0.00,CLR,,0.08,WeatherDisplay:10.37,2013-12-26 05:52:00,
2013-12-26 16:57:00,81.3,65.6,29.66,WNW,303,1.0,8.0,59,0.00,CLR,,0.08,WeatherDisplay:10.37,2013-12-26 05:57:00,
2013-12-26 17:02:00,81.0,65.3,29.66,SSE,154,6.0,12.0,59,0.00,CLR,,0.08,WeatherDisplay:10.37,2013-12-26 06:02:00,
2013-12-26 17:07:00,80.8,65.6,29.66,South,177,1.0,7.0,60,0.00,CLR,,0.08,WeatherDisplay:10.37,2013-12-26 06:07:00,
2013-12-26 17:12:00,80.7,65.5,29.66,SSE,167,2.0,9.0,60,0.00,CLR,,0.08,WeatherDisplay:10.37,2013-12-26 06:12:00,
2013-12-26 17:17:00,80.3,65.2,29.66,SSE,157,5.0,10.0,60,0.00,CLR,,0.08,WeatherDisplay:10.37,2013-12-26 06:17:00,
2013-12-26 17:22:00,80.2,65.5,29.65,South,181,3.0,9.0,61,0.00,CLR,,0.08,WeatherDisplay:10.37,2013-12-26 06:22:00,
2013-12-26 17:27:00,79.9,65.3,29.65,South,182,2.0,8.0,61,0.00,CLR,,0.08,WeatherDisplay:10.37,2013-12-26 06:27:00,
2013-12-26 17:32:00,79.7,65.1,29.65,SSE,150,2.0,8.0,61,0.00,CLR,,0.08,WeatherDisplay:10.37,2013-12-26 06:32:00,
2013-12-26 17:37:00,79.5,65.4,29.65,East,83,1.0,5.0,62,0.00,CLR,,0.08,WeatherDisplay:10.37,2013-12-26 06:37:00,
2013-12-26 17:42:00,79.3,65.2,29.65,SSE,153,3.0,8.0,62,0.00,CLR,,0.08,WeatherDisplay:10.37,2013-12-26 06:42:00,
2013-12-26 17:47:00,79.2,65.0,29.65,ESE,122,1.0,5.0,62,0.00,CLR,,0.08,WeatherDisplay:10.37,2013-12-26 06:47:00,
2013-12-26 17:52:00,79.0,64.8,29.65,NE,53,2.0,5.0,62,0.00,CLR,,0.08,WeatherDisplay:10.37,2013-12-26 06:52:00,
2013-12-26 17:57:00,78.7,64.6,29.65,SSW,209,3.0,7.0,62,0.00,CLR,,0.08,WeatherDisplay:10.37,2013-12-26 06:57:00,
2013-12-26 18:02:00,78.7,64.6,29.65,SSW,199,1.0,4.0,62,0.00,CLR,,0.08,WeatherDisplay:10.37,2013-12-26 07:02:00,
2013-12-26 18:07:00,78.6,64.5,29.65,SSW,201,1.0,7.0,62,0.00,CLR,,0.08,WeatherDisplay:10.37,2013-12-26 07:07:00,
2013-12-26 18:12:00,78.4,64.3,29.65,South,186,3.0,8.0,62,0.00,CLR,,0.08,WeatherDisplay:10.37,2013-12-26 07:12:00,
2013-12-26 18:17:00,78.4,64.3,29.65,SSW,202,1.0,7.0,62,0.00,CLR,,0.08,WeatherDisplay:10.37,2013-12-26 07:17:00,
2013-12-26 18:22:00,78.1,64.0,29.65,SSW,201,0.0,4.0,62,0.00,CLR,,0.08,WeatherDisplay:10.37,2013-12-26 07:22:00,
2013-12-26 18:27:00,78.1,64.0,29.66,South,184,2.0,7.0,62,0.00,CLR,,0.08,WeatherDisplay:10.37,2013-12-26 07:27:00,
2013-12-26 18:32:00,77.9,63.8,29.66,SSW,207,1.0,7.0,62,0.00,CLR,,0.08,WeatherDisplay:10.37,2013-12-26 07:32:00,
2013-12-26 18:37:00,77.7,63.7,29.66,SSW,204,5.0,6.0,62,0.00,CLR,,0.08,WeatherDisplay:10.37,2013-12-26 07:37:00,
2013-12-26 18:42:00,77.5,63.5,29.66,SSW,204,1.0,6.0,62,0.00,CLR,,0.08,WeatherDisplay:10.37,2013-12-26 07:42:00,
2013-12-26 18:47:00,77.5,63.5,29.66,SW,216,0.0,2.0,62,0.00,CLR,,0.08,WeatherDisplay:10.37,2013-12-26 07:47:00,
2013-12-26 18:52:00,77.4,63.3,29.66,SW,229,1.0,3.0,62,0.00,CLR,,0.08,WeatherDisplay:10.37,2013-12-26 07:52:00,
2013-12-26 18:57:00,77.0,63.0,29.66,SW,231,0.0,3.0,62,0.00,CLR,,0.08,WeatherDisplay:10.37,2013-12-26 07:57:00,
2013-12-26 19:02:00,76.8,62.7,29.66,East,88,1.0,4.0,62,0.00,CLR,,0.08,WeatherDisplay:10.37,2013-12-26 08:02:00,
2013-12-26 19:07:00,76.3,62.8,29.67,ESE,115,0.0,3.0,63,0.00,CLR,,0.08,WeatherDisplay:10.37,2013-12-26 08:07:00,
2013-12-26 19:12:00,76.1,62.6,29.66,SW,221,2.0,4.0,63,0.00,CLR,,0.08,WeatherDisplay:10.37,2013-12-26 08:12:00,
2013-12-26 19:17:00,75.9,62.9,29.67,SSW,200,2.0,5.0,64,0.00,CLR,,0.08,WeatherDisplay:10.37,2013-12-26 08:17:00,
2013-12-26 19:22:00,75.7,62.7,29.67,South,191,2.0,5.0,64,0.00,CLR,,0.08,WeatherDisplay:10.37,2013-12-26 08:22:00,
2013-12-26 19:27:00,75.6,62.5,29.67,South,179,1.0,3.0,64,0.00,CLR,,0.08,WeatherDisplay:10.37,2013-12-26 08:27:00,
2013-12-26 19:32:00,75.4,62.8,29.67,SSE,148,0.0,5.0,65,0.00,CLR,,0.08,WeatherDisplay:10.37,2013-12-26 08:32:00,
2013-12-26 19:37:00,75.0,62.5,29.67,South,170,0.0,2.0,65,0.00,CLR,,0.08,WeatherDisplay:10.37,2013-12-26 08:37:00,
2013-12-26 19:42:00,74.8,62.7,29.67,East,99,0.0,2.0,66,0.00,CLR,,0.08,WeatherDisplay:10.37,2013-12-26 08:42:00,
2013-12-26 19:47:00,74.5,62.4,29.68,SSE,156,1.0,4.0,66,0.00,CLR,,0.08,WeatherDisplay:10.37,2013-12-26 08:47:00,
2013-12-26 19:52:00,74.4,62.3,29.68,SSW,194,1.0,4.0,66,0.00,CLR,,0.08,WeatherDisplay:10.37,2013-12-26 08:52:00,
2013-12-26 19:57:00,74.1,62.0,29.69,South,185,1.0,5.0,66,0.00,CLR,,0.08,WeatherDisplay:10.37,2013-12-26 08:57:00,
2013-12-26 20:02:00,74.1,62.5,29.69,SSW,196,1.0,2.0,67,0.00,CLR,,0.08,WeatherDisplay:10.37,2013-12-26 09:02:00,
2013-12-26 20:07:00,74.1,62.4,29.69,SSW,203,1.0,4.0,67,0.00,CLR,,0.08,WeatherDisplay:10.37,2013-12-26 09:07:00,
2013-12-26 20:12:00,73.9,62.7,29.69,SSW,209,2.0,5.0,68,0.00,CLR,,0.08,WeatherDisplay:10.37,2013-12-26 09:12:00,
2013-12-26 20:17:00,73.8,62.5,29.70,SSW,206,0.0,3.0,68,0.00,CLR,,0.08,WeatherDisplay:10.37,2013-12-26 09:17:00,
2013-12-26 20:22:00,73.6,62.4,29.70,SSW,208,0.0,1.0,68,0.00,CLR,,0.08,WeatherDisplay:10.37,2013-12-26 09:22:00,
2013-12-26 20:27:00,73.3,62.1,29.70,SSW,212,1.0,5.0,68,0.00,CLR,,0.08,WeatherDisplay:10.37,2013-12-26 09:27:00,
2013-12-26 20:37:00,73.2,62.4,29.71,SSW,210,1.0,6.0,69,0.00,CLR,,0.08,WeatherDisplay:10.37,2013-12-26 09:37:00,
2013-12-26 20:42:00,73.0,62.3,29.72,SW,220,1.0,4.0,69,0.00,CLR,,0.08,WeatherDisplay:10.37,2013-12-26 09:42:00,
2013-12-26 20:47:00,72.7,61.9,29.72,SW,215,0.0,3.0,69,0.00,CLR,,0.08,WeatherDisplay:10.37,2013-12-26 09:47:00,
2013-12-26 20:52:00,72.7,62.3,29.72,SSW,203,1.0,4.0,70,0.00,CLR,,0.08,WeatherDisplay:10.37,2013-12-26 09:52:00,
2013-12-26 20:57:00,72.5,62.2,29.73,SSW,208,1.0,3.0,70,0.00,CLR,,0.08,WeatherDisplay:10.37,2013-12-26 09:57:00,
2013-12-26 21:02:00,72.4,62.1,29.73,SW,225,3.0,6.0,70,0.00,CLR,,0.08,WeatherDisplay:10.37,2013-12-26 10:02:00,
2013-12-26 21:07:00,72.3,62.4,29.73,WSW,247,1.0,3.0,71,0.00,CLR,,0.08,WeatherDisplay:10.37,2013-12-26 10:07:00,
2013-12-26 21:12:00,72.3,62.4,29.74,SW,229,2.0,6.0,71,0.00,CLR,,0.08,WeatherDisplay:10.37,2013-12-26 10:12:00,
2013-12-26 21:17:00,72.2,62.3,29.74,SSW,211,1.0,5.0,71,0.00,CLR,,0.08,WeatherDisplay:10.37,2013-12-26 10:17:00,
2013-12-26 21:22:00,72.1,62.6,29.74,SW,224,0.0,2.0,72,0.00,CLR,,0.08,WeatherDisplay:10.37,2013-12-26 10:22:00,
2013-12-26 21:27:00,72.1,62.6,29.75,SSW,202,1.0,2.0,72,0.00,CLR,,0.08,WeatherDisplay:10.37,2013-12-26 10:27:00,
2013-12-26 21:32:00,72.1,62.6,29.75,SSW,204,1.0,5.0,72,0.00,CLR,,0.08,WeatherDisplay:10.37,2013-12-26 10:32:00,
2013-12-26 21:37:00,72.2,63.0,29.75,SW,230,0.0,5.0,73,0.00,CLR,,0.08,WeatherDisplay:10.37,2013-12-26 10:37:00,
2013-12-26 21:42:00,72.3,63.2,29.76,WSW,237,0.0,2.0,73,0.00,CLR,,0.08,WeatherDisplay:10.37,2013-12-26 10:42:00,
2013-12-26 21:47:00,72.3,63.2,29.76,WSW,245,2.0,4.0,73,0.00,CLR,,0.08,WeatherDisplay:10.37,2013-12-26 10:47:00,
2013-12-26 21:52:00,72.3,63.2,29.76,WSW,243,1.0,5.0,73,0.00,CLR,,0.08,WeatherDisplay:10.37,2013-12-26 10:52:00,
2013-12-26 21:57:00,72.3,63.2,29.76,South,174,1.0,6.0,73,0.00,CLR,,0.08,WeatherDisplay:10.37,2013-12-26 10:57:00,
2013-12-26 22:02:00,72.3,63.2,29.76,South,183,3.0,6.0,73,0.00,CLR,,0.08,WeatherDisplay:10.37,2013-12-26 11:02:00,
2013-12-26 22:07:00,72.2,63.1,29.76,SSW,199,1.0,5.0,73,0.00,CLR,,0.08,WeatherDisplay:10.37,2013-12-26 11:07:00,
2013-12-26 22:17:00,72.1,63.0,29.76,SSW,192,1.0,3.0,73,0.00,CLR,,0.08,WeatherDisplay:10.37,2013-12-26 11:17:00,
2013-12-26 22:27:00,72.0,62.9,29.75,SW,226,1.0,4.0,73,0.00,CLR,,0.08,WeatherDisplay:10.37,2013-12-26 11:27:00,
2013-12-26 22:32:00,72.0,62.8,29.76,SW,228,1.0,3.0,73,0.00,CLR,,0.08,WeatherDisplay:10.37,2013-12-26 11:32:00,
2013-12-26 22:37:00,72.0,62.8,29.76,SW,230,0.0,2.0,73,0.00,CLR,,0.08,WeatherDisplay:10.37,2013-12-26 11:37:00,
2013-12-26 22:42:00,72.0,62.8,29.75,SSW,212,1.0,3.0,73,0.00,CLR,,0.08,WeatherDisplay:10.37,2013-12-26 11:42:00,
2013-12-26 22:47:00,71.8,63.0,29.75,SSW,205,0.0,3.0,74,0.00,CLR,,0.08,WeatherDisplay:10.37,2013-12-26 11:47:00,
2013-12-26 22:52:00,71.8,63.0,29.75,SW,220,0.0,2.0,74,0.00,CLR,,0.08,WeatherDisplay:10.37,2013-12-26 11:52:00,
2013-12-26 22:57:00,71.7,62.9,29.76,SW,222,0.0,2.0,74,0.00,CLR,,0.08,WeatherDisplay:10.37,2013-12-26 11:57:00,
2013-12-26 23:02:00,71.4,62.7,29.76,SSW,204,0.0,2.0,74,0.00,CLR,,0.08,WeatherDisplay:10.37,2013-12-26 12:02:00,
2013-12-26 23:07:00,71.4,62.7,29.75,SSW,194,0.0,0.0,74,0.00,CLR,,0.08,WeatherDisplay:10.37,2013-12-26 12:07:00,
2013-12-26 23:12:00,71.4,62.7,29.75,ESE,104,0.0,0.0,74,0.00,CLR,,0.08,WeatherDisplay:10.37,2013-12-26 12:12:00,
2013-12-26 23:17:00,71.4,63.1,29.74,NNE,14,0.0,0.0,75,0.00,CLR,,0.08,WeatherDisplay:10.37,2013-12-26 12:17:00,
2013-12-26 23:22:00,71.4,63.1,29.75,North,359,0.0,0.0,75,0.00,CLR,,0.08,WeatherDisplay:10.37,2013-12-26 12:22:00,
2013-12-26 23:27:00,71.4,63.1,29.75,WNW,288,1.0,2.0,75,0.00,CLR,,0.08,WeatherDisplay:10.37,2013-12-26 12:27:00,
2013-12-26 23:32:00,71.4,63.1,29.74,SW,220,0.0,2.0,75,0.00,CLR,,0.08,WeatherDisplay:10.37,2013-12-26 12:32:00,
2013-12-26 23:37:00,71.4,63.5,29.74,SW,214,1.0,3.0,76,0.00,CLR,,0.08,WeatherDisplay:10.37,2013-12-26 12:37:00,
2013-12-26 23:42:00,71.2,63.3,29.74,SSW,205,2.0,2.0,76,0.00,CLR,,0.08,WeatherDisplay:10.37,2013-12-26 12:42:00,
2013-12-26 23:47:00,71.2,63.3,29.74,SSW,212,1.0,3.0,76,0.00,CLR,,0.08,WeatherDisplay:10.37,2013-12-26 12:47:00,
2013-12-26 23:52:00,71.2,63.3,29.74,SW,222,2.0,4.0,76,0.00,CLR,,0.08,WeatherDisplay:10.37,2013-12-26 12:52:00,
2013-12-26 23:57:00,71.2,63.3,29.74,SW,218,0.0,2.0,76,0.00,CLR,,0.08,WeatherDisplay:10.37,2013-12-26 12:57:00,